Time_in_sec,Mx,My,Mz
1314273398.60146427,-0.33283338,0.49377608,-0.80055261
1314273398.65428758,-0.33363411,0.49504051,-0.80020934
1314273398.69435930,-0.33212152,0.49464241,-0.79985452
1314273398.75242496,-0.33225718,0.49665636,-0.79961163
1314273398.80244684,-0.33264920,0.49462128,-0.79736155
1314273398.85245943,-0.33266011,0.49500069,-0.79749775
1314273398.90448189,-0.33290428,0.49665809,-0.79911739
1314273398.94447875,-0.33300436,0.49514350,-0.79871351
1314273399.00517631,-0.33253977,0.49603271,-0.79988867
1314273399.05382633,-0.33329377,0.49640778,-0.79887223
1314273399.10160089,-0.33195123,0.49624494,-0.79680264
1314273399.15360379,-0.33426932,0.49453685,-0.79957789
1314273399.19365096,-0.33350721,0.49617264,-0.80021048
1314273399.25249457,-0.33267415,0.49374563,-0.79788762
1314273399.30446839,-0.33356893,0.49374589,-0.79700917
1314273399.35248590,-0.33401501,0.49564460,-0.79744709
1314273399.40445924,-0.33217564,0.49538302,-0.79840243
1314273399.45402694,-0.33363348,0.49589643,-0.79782552
1314273399.50549603,-0.33376491,0.49323145,-0.79582149
1314273399.55259991,-0.33339024,0.49537119,-0.79608154
1314273399.60450292,-0.33275723,0.49310821,-0.79709089
1314273399.65312934,-0.33320230,0.49488097,-0.79752779
1314273399.69356108,-0.33377632,0.49476734,-0.79809088
1314273399.75245976,-0.33181050,0.49561355,-0.79678988
1314273399.80448985,-0.33246797,0.49584439,-0.79417342
1314273399.85398817,-0.33352405,0.49512082,-0.79608732
1314273399.90161085,-0.33283275,0.49463198,-0.79816878
1314273399.94458914,-0.33229601,0.49435100,-0.79601151
1314273400.00242090,-0.33287483,0.49687958,-0.79632890
1314273400.05360246,-0.33245903,0.49571690,-0.79403919
1314273400.10161018,-0.33373645,0.49357891,-0.79303396
1314273400.15249205,-0.33300281,0.49486724,-0.79645407
1314273400.19347763,-0.33380762,0.49462315,-0.79636538
1314273400.25373173,-0.33303213,0.49447110,-0.79472655
1314273400.30560660,-0.33384484,0.49523473,-0.79464585
1314273400.35361719,-0.33447066,0.49462789,-0.79613769
1314273400.40175509,-0.33210540,0.49547094,-0.79494667
1314273400.44461322,-0.33127078,0.49495468,-0.79462963
1314273400.50161409,-0.33064455,0.49558583,-0.79539531
1314273400.55349183,-0.33275744,0.49610248,-0.79445744
1314273400.60542226,-0.33412945,0.49385682,-0.79505020
1314273400.65361309,-0.33171698,0.49484101,-0.79531819
1314273400.69246101,-0.33312163,0.49574599,-0.79606897
1314273400.75261474,-0.33416805,0.49675703,-0.79533952
1314273400.79647613,-0.33327976,0.49547586,-0.79421705
1314273400.85261559,-0.33255696,0.49596277,-0.79338270
1314273400.90160489,-0.33098125,0.49570277,-0.79422033
1314273400.95257640,-0.33258939,0.49611914,-0.79617417
1314273401.00151396,-0.33302319,0.49434361,-0.79459232
1314273401.05348182,-0.33186921,0.49381509,-0.79346031
1314273401.10160208,-0.33262885,0.49295789,-0.79495788
1314273401.15359044,-0.33297694,0.49461073,-0.79605234
1314273401.19423771,-0.33161306,0.49484554,-0.79584342
1314273401.25351691,-0.33274207,0.49624974,-0.79644942
1314273401.30159259,-0.33387676,0.49423462,-0.79530418
1314273401.35249758,-0.33255267,0.49447703,-0.79576153
1314273401.40153289,-0.33241582,0.49535573,-0.79562747
1314273401.45432544,-0.33224380,0.49486852,-0.79734021
1314273401.50148344,-0.33465019,0.49514094,-0.79681563
1314273401.55353928,-0.33266562,0.49359381,-0.79549587
1314273401.60218644,-0.33376098,0.49272758,-0.79581749
1314273401.65347004,-0.33244032,0.49450439,-0.79841101
1314273401.70451880,-0.33208913,0.49448603,-0.79706299
1314273401.75245833,-0.33410358,0.49360031,-0.79464847
1314273401.80451059,-0.33347592,0.49412984,-0.79767066
1314273401.85395265,-0.33264223,0.49474573,-0.79722929
1314273401.90551686,-0.33148268,0.49663028,-0.79797381
1314273401.94543743,-0.33447316,0.49503011,-0.79839814
1314273402.00222135,-0.33332011,0.49563375,-0.79714179
1314273402.05360389,-0.33280522,0.49611160,-0.79525697
1314273402.10134673,-0.33248755,0.49436322,-0.79695207
1314273402.15346241,-0.33268091,0.49663976,-0.79764390
1314273402.20161247,-0.33316207,0.49489769,-0.79911906
1314273402.25375175,-0.33431765,0.49250925,-0.79837054
1314273402.30457950,-0.33334604,0.49488404,-0.79766881
1314273402.35360026,-0.33300245,0.49388537,-0.79883689
1314273402.40448451,-0.33385199,0.49427870,-0.79941940
1314273402.45360422,-0.33429116,0.49529567,-0.79985034
1314273402.50160909,-0.33403501,0.49413911,-0.79796815
1314273402.55249119,-0.33243039,0.49425092,-0.79827577
1314273402.60161448,-0.33373114,0.49415424,-0.79967713
1314273402.65368748,-0.33284226,0.49490976,-0.80056155
1314273402.70160818,-0.33244795,0.49352404,-0.80092710
1314273402.75360513,-0.33349085,0.49619392,-0.80220151
1314273402.80450201,-0.33314174,0.49441510,-0.80110610
1314273402.85360765,-0.33309913,0.49201721,-0.80068749
1314273402.90161467,-0.33311531,0.49619532,-0.80271119
1314273402.95246315,-0.33263037,0.49542114,-0.80148274
1314273403.00159812,-0.33304036,0.49263486,-0.79962647
1314273403.05378246,-0.33370692,0.49316779,-0.80166024
1314273403.10448194,-0.33193457,0.49427816,-0.80130178
1314273403.15362215,-0.33212900,0.49567446,-0.80211991
1314273403.20684695,-0.33326408,0.49582204,-0.80298251
1314273403.25266361,-0.33276618,0.49542272,-0.80149049
1314273403.30577803,-0.33277822,0.49391571,-0.80187833
1314273403.35246801,-0.33231509,0.49390036,-0.80092233
1314273403.40562153,-0.33246729,0.49506146,-0.80332977
1314273403.45362949,-0.33251452,0.49492031,-0.80187076
1314273403.50157619,-0.33375764,0.49355483,-0.80246270
1314273403.55363178,-0.33256721,0.49555928,-0.80267519
1314273403.60465384,-0.33263144,0.49454093,-0.80160904
1314273403.65259528,-0.33242249,0.49543023,-0.80253321
1314273403.70163894,-0.33283550,0.49420261,-0.80507058
1314273403.75249267,-0.33270711,0.49405229,-0.80293757
1314273403.80172062,-0.33339196,0.49481589,-0.80298233
1314273403.85361052,-0.33440459,0.49556893,-0.80171788
1314273403.90061569,-0.33224341,0.49607366,-0.80398840
1314273403.94455051,-0.33201307,0.49617979,-0.80238265
1314273404.00326705,-0.33233637,0.49669591,-0.80320162
1314273404.05253720,-0.33367682,0.49643221,-0.80075324
1314273404.10052466,-0.33354512,0.49492213,-0.80100006
1314273404.15247869,-0.33264592,0.49444234,-0.80413204
1314273404.20150065,-0.33348358,0.49433029,-0.80457735
1314273404.25349164,-0.33390033,0.49443814,-0.80247742
1314273404.30045390,-0.33251557,0.49404007,-0.80199707
1314273404.35346723,-0.33407101,0.49381748,-0.80314648
1314273404.40235901,-0.33348337,0.49734887,-0.80420142
1314273404.45245457,-0.33278665,0.49507371,-0.80414474
1314273404.50145483,-0.33131742,0.49302441,-0.80245233
1314273404.55244446,-0.33509463,0.49394375,-0.80214351
1314273404.60446382,-0.33462805,0.49458104,-0.80331671
1314273404.65402699,-0.33254629,0.49593258,-0.80227846
1314273404.70148754,-0.33235237,0.49569276,-0.80359346
1314273404.75248241,-0.33333808,0.49706954,-0.80180091
1314273404.80217314,-0.33185437,0.49629965,-0.80197608
1314273404.85347629,-0.33295572,0.49518302,-0.80242902
1314273404.90148568,-0.33356351,0.49633360,-0.80340171
1314273404.95268416,-0.33218428,0.49570945,-0.80531019
1314273405.00470185,-0.33292106,0.49278662,-0.80214369
1314273405.05396533,-0.33346218,0.49354714,-0.80204743
1314273405.10447764,-0.33430466,0.49507111,-0.80237240
1314273405.15267420,-0.33388391,0.49546561,-0.80434304
1314273405.20446110,-0.33249712,0.49582180,-0.80373544
1314273405.25249004,-0.33394212,0.49469769,-0.80314565
1314273405.30549836,-0.33286771,0.49519059,-0.80322075
1314273405.35248065,-0.33268216,0.49492794,-0.80241150
1314273405.40162516,-0.33422911,0.49573436,-0.80555981
1314273405.45348024,-0.33344030,0.49497530,-0.80604035
1314273405.50561023,-0.33339009,0.49355775,-0.80310565
1314273405.55259919,-0.33384734,0.49181113,-0.80418110
1314273405.60208797,-0.33432320,0.49447018,-0.80502468
1314273405.65248537,-0.33309412,0.49458060,-0.80482256
1314273405.70149827,-0.33229423,0.49545452,-0.80491620
1314273405.75274515,-0.33460557,0.49686512,-0.80492580
1314273405.80188704,-0.33174846,0.49605224,-0.80249935
1314273405.85371709,-0.33373621,0.49495867,-0.80419809
1314273405.90154028,-0.33320650,0.49573407,-0.80656374
1314273405.94160438,-0.33216548,0.49432230,-0.80516601
1314273406.00462294,-0.33261499,0.49556839,-0.80347472
1314273406.05251169,-0.33275184,0.49468973,-0.80360878
1314273406.10160542,-0.33428246,0.49333042,-0.80448276
1314273406.15248322,-0.33418831,0.49560079,-0.80489260
1314273406.20447755,-0.33429542,0.49295557,-0.80474627
1314273406.25377989,-0.33524886,0.49435058,-0.80467826
1314273406.30160499,-0.33317530,0.49268508,-0.80414921
1314273406.35362768,-0.33329812,0.49306148,-0.80389345
1314273406.40176105,-0.33273542,0.49571720,-0.80547446
1314273406.45248985,-0.33404753,0.49597561,-0.80475456
1314273406.50163388,-0.33346710,0.49417695,-0.80205238
1314273406.55349255,-0.33403865,0.49484193,-0.80474561
1314273406.60470891,-0.33299404,0.49609518,-0.80522645
1314273406.65366149,-0.33223143,0.49657449,-0.80372590
1314273406.70162439,-0.33259273,0.49483389,-0.80545980
1314273406.75264502,-0.33286881,0.49549118,-0.80773777
1314273406.80164742,-0.33343750,0.49258503,-0.80628800
1314273406.85262418,-0.33322695,0.49420425,-0.80482739
1314273406.90159106,-0.33299658,0.49649739,-0.80748695
1314273406.95244360,-0.33276516,0.49748376,-0.80575484
1314273407.00449395,-0.33295429,0.49508137,-0.80468553
1314273407.05352855,-0.33452177,0.49335176,-0.80622280
1314273407.09403658,-0.33352932,0.49509370,-0.80524957
1314273407.15247989,-0.33434603,0.49535498,-0.80529809
1314273407.20240045,-0.33233982,0.49823031,-0.80533779
1314273407.25248742,-0.33242503,0.49583244,-0.80479372
1314273407.30151081,-0.33288926,0.49396136,-0.80600137
1314273407.35247803,-0.33479032,0.49398318,-0.80611002
1314273407.40448284,-0.33465046,0.49549016,-0.80584764
1314273407.45386672,-0.33391625,0.49662820,-0.80700922
1314273407.50548887,-0.33368111,0.49409211,-0.80564916
1314273407.55249238,-0.33193266,0.49520704,-0.80569047
1314273407.60357904,-0.33468223,0.49650246,-0.80625534
1314273407.65246725,-0.33187839,0.49647883,-0.80689186
1314273407.70153904,-0.33294395,0.49485224,-0.80680782
1314273407.75346279,-0.33335236,0.49397668,-0.80695736
1314273407.80160165,-0.33160794,0.49458927,-0.80712795
1314273407.85376239,-0.33361641,0.49395397,-0.80458218
1314273407.90223694,-0.33171830,0.49649704,-0.80874181
1314273407.94162059,-0.33244362,0.49422532,-0.80757129
1314273408.00716662,-0.33177841,0.49698722,-0.80742103
1314273408.05245018,-0.33292583,0.49761584,-0.80616337
1314273408.10463047,-0.33265144,0.49522245,-0.80639547
1314273408.15246725,-0.33067128,0.49533567,-0.80721283
1314273408.20161223,-0.33291751,0.49663246,-0.80841291
1314273408.25383234,-0.33293900,0.49422243,-0.80680287
1314273408.30521035,-0.33331960,0.49283844,-0.80654871
1314273408.35250974,-0.33213770,0.49499470,-0.80915296
1314273408.40199566,-0.33398396,0.49613804,-0.80820453
1314273408.45266247,-0.33072504,0.49509439,-0.80814362
1314273408.50548935,-0.33360803,0.49397677,-0.80670643
1314273408.54448819,-0.33225209,0.49421310,-0.80663079
1314273408.60161448,-0.33355108,0.49685872,-0.80539668
1314273408.65369892,-0.33297163,0.49737307,-0.80696088
1314273408.69344926,-0.33221063,0.49712244,-0.80784506
1314273408.75360107,-0.33099452,0.49685797,-0.80790651
1314273408.80368304,-0.33362880,0.49561584,-0.80685252
1314273408.84198499,-0.33381674,0.49610606,-0.80540627
1314273408.90451527,-0.33241457,0.49660951,-0.80679065
1314273408.94146919,-0.33169878,0.49697199,-0.80608857
1314273409.00150299,-0.33276382,0.49637592,-0.80813670
1314273409.05370927,-0.33298206,0.49659598,-0.80496395
1314273409.10453415,-0.33340853,0.49396303,-0.80563265
1314273409.15260172,-0.33297867,0.49624243,-0.80721843
1314273409.20453858,-0.33264789,0.49688128,-0.80839938
1314273409.25365877,-0.33362287,0.49486005,-0.80684662
1314273409.30169535,-0.33359605,0.49447757,-0.80644387
1314273409.35255003,-0.33302385,0.49685553,-0.80563217
1314273409.40147471,-0.33292997,0.49510112,-0.80654329
1314273409.45368624,-0.33101687,0.49658629,-0.80604678
1314273409.50486064,-0.33320966,0.49309337,-0.80694270
1314273409.55246258,-0.33219332,0.49483073,-0.80556977
1314273409.60222459,-0.33288017,0.49584624,-0.80561650
1314273409.65352225,-0.33313644,0.49499044,-0.80774933
1314273409.69245291,-0.33313546,0.49486446,-0.80774832
1314273409.75244999,-0.33062944,0.49608234,-0.80641931
1314273409.80457091,-0.33287722,0.49546835,-0.80561352
1314273409.85351944,-0.33387446,0.49636865,-0.80634099
1314273409.90149093,-0.33350796,0.49549136,-0.80711031
1314273409.94151235,-0.33163768,0.49635583,-0.80740833
1314273410.00156426,-0.33298552,0.49813038,-0.80710006
1314273410.05250502,-0.33356997,0.49723968,-0.80566615
1314273410.10056257,-0.33291906,0.49472171,-0.80640703
1314273410.15246463,-0.33396310,0.49550518,-0.80793309
1314273410.20055652,-0.33242556,0.49598274,-0.80705220
1314273410.25366640,-0.33308911,0.49495697,-0.80469233
1314273410.30045986,-0.33290625,0.49308416,-0.80639416
1314273410.35261202,-0.33281216,0.49434835,-0.80692935
1314273410.40243506,-0.33187255,0.49471685,-0.80701125
1314273410.45254874,-0.33199325,0.49685371,-0.80650282
1314273410.50447702,-0.33127075,0.49331585,-0.80616981
1314273410.55278015,-0.33338162,0.49458677,-0.80510461
1314273410.60451412,-0.33481717,0.49436566,-0.80651271
1314273410.65364337,-0.33263415,0.49411157,-0.80851084
1314273410.70447135,-0.33209381,0.49649560,-0.80823213
1314273410.75362396,-0.33304590,0.49459580,-0.80628055
1314273410.80579066,-0.33411488,0.49450359,-0.80833268
1314273410.85362697,-0.33361295,0.49460658,-0.80671138
1314273410.90161061,-0.33338711,0.49536687,-0.80736804
1314273410.95247650,-0.33304548,0.49462011,-0.80853808
1314273411.00519228,-0.33396712,0.49500284,-0.80806237
1314273411.05349588,-0.33334932,0.49460500,-0.80682909
1314273411.10114455,-0.33399093,0.49601361,-0.80833679
1314273411.15360832,-0.33262801,0.49637437,-0.80812889
1314273411.20160675,-0.33338371,0.49501330,-0.80962259
1314273411.25361514,-0.33442262,0.49599853,-0.80650234
1314273411.30449104,-0.33241972,0.49422073,-0.80717152
1314273411.35256839,-0.33346328,0.49384773,-0.80656439
1314273411.40458155,-0.33454397,0.49727950,-0.80837774
1314273411.45348310,-0.33220628,0.49664289,-0.81009859
1314273411.50459647,-0.33203328,0.49384275,-0.80754507
1314273411.55361724,-0.33215210,0.49472147,-0.80716002
1314273411.60201788,-0.33252317,0.49524674,-0.80877846
1314273411.65258789,-0.33102241,0.49636021,-0.80843556
1314273411.70150471,-0.33298627,0.49526209,-0.80973452
1314273411.75243998,-0.33222467,0.49586734,-0.80823493
1314273411.80449200,-0.33177155,0.49509928,-0.80753946
1314273411.85350251,-0.33337885,0.49337730,-0.80974293
1314273411.89353299,-0.33158517,0.49488530,-0.81124520
1314273411.94521785,-0.33225009,0.49614817,-0.81089413
1314273412.00161958,-0.33303630,0.49751121,-0.80802786
1314273412.05363059,-0.33357251,0.49764189,-0.80792665
1314273412.10548162,-0.33444917,0.49439293,-0.80941319
1314273412.15249395,-0.33337432,0.49491015,-0.81174582
1314273412.20504498,-0.33233169,0.49641535,-0.81222862
1314273412.25346184,-0.33333552,0.49502850,-0.81108057
1314273412.30539465,-0.33318436,0.49298719,-0.80879945
1314273412.35258007,-0.33536145,0.49467248,-0.81106073
1314273412.40775466,-0.33279482,0.49643067,-0.81318468
1314273412.45275855,-0.33219293,0.49603587,-0.81221789
1314273412.50451064,-0.33517146,0.49493653,-0.81237972
1314273412.55248356,-0.33202234,0.49565032,-0.81167418
1314273412.60449553,-0.33341712,0.49529564,-0.81241506
1314273412.65344954,-0.33314461,0.49416038,-0.81252384
1314273412.70446754,-0.33299541,0.49455798,-0.81451005
1314273412.75260139,-0.33200446,0.49539536,-0.81140566
1314273412.80677867,-0.33413243,0.49377668,-0.81098396
1314273412.85349178,-0.33444324,0.49582413,-0.81367260
1314273412.90458584,-0.33139017,0.49552572,-0.81243390
1314273412.95346427,-0.33353886,0.49655229,-0.81203300
1314273413.00045776,-0.33376175,0.49541411,-0.81137329
1314273413.05358529,-0.33224818,0.49489006,-0.81101751
1314273413.10147524,-0.33279637,0.49451992,-0.81117880
1314273413.15355945,-0.33163878,0.49665642,-0.81192529
1314273413.20447755,-0.33278543,0.49632752,-0.81530792
1314273413.25355482,-0.33332375,0.49251074,-0.81119400
1314273413.30120707,-0.33381355,0.49492091,-0.81230211
1314273413.35246134,-0.33256754,0.49490231,-0.81183249
1314273413.40150285,-0.33352563,0.49493909,-0.81427759
1314273413.45367384,-0.33389819,0.49455976,-0.81376487
1314273413.50450182,-0.33173054,0.49415845,-0.81377101
1314273413.55250692,-0.33221492,0.49478233,-0.81274098
1314273413.60350680,-0.33342308,0.49504524,-0.81254631
1314273413.65256047,-0.33401352,0.49609116,-0.81550902
1314273413.70446420,-0.33149672,0.49491718,-0.81429446
1314273413.75247765,-0.33232683,0.49477932,-0.81234902
1314273413.80160570,-0.33406484,0.49444145,-0.81430465
1314273413.85370922,-0.33207506,0.49628928,-0.81247860
1314273413.89364457,-0.33323312,0.49530929,-0.81386530
1314273413.94160891,-0.33180493,0.49756864,-0.81459725
1314273414.00217652,-0.33173320,0.49856111,-0.81327271
1314273414.05251122,-0.33316645,0.49491921,-0.81279629
1314273414.10449052,-0.33377415,0.49707597,-0.81364369
1314273414.15248847,-0.33163244,0.49592495,-0.81417686
1314273414.20473838,-0.33295342,0.49731705,-0.81346589
1314273414.25355721,-0.33413896,0.49367657,-0.81337374
1314273414.30445218,-0.33201697,0.49504483,-0.81392670
1314273414.35348892,-0.33465183,0.49395299,-0.81513125
1314273414.40446568,-0.33277547,0.49607405,-0.81517267
1314273414.45245957,-0.33170608,0.49619058,-0.81537813
1314273414.50547957,-0.33274478,0.49418154,-0.81489134
1314273414.55244970,-0.33309436,0.49492982,-0.81385458
1314273414.60148621,-0.33266464,0.49519685,-0.81569099
1314273414.65363097,-0.33357537,0.49520016,-0.81507909
1314273414.70146894,-0.33188513,0.49554715,-0.81392294
1314273414.75244975,-0.33395785,0.49507430,-0.81470162
1314273414.80392575,-0.33374646,0.49455518,-0.81349063
1314273414.85346460,-0.33498254,0.49432033,-0.81382501
1314273414.90443969,-0.33168268,0.49734250,-0.81711155
1314273414.94549656,-0.33352110,0.49647194,-0.81628048
1314273415.00451422,-0.33075449,0.49705991,-0.81519747
1314273415.05356503,-0.33485562,0.49545243,-0.81382614
1314273415.10496759,-0.33247298,0.49719700,-0.81449986
1314273415.15259910,-0.33197969,0.49543944,-0.81552094
1314273415.20177412,-0.33336240,0.49659178,-0.81587398
1314273415.25247645,-0.33377522,0.49619576,-0.81377000
1314273415.30852056,-0.33407682,0.49394065,-0.81456721
1314273415.34452033,-0.33295554,0.49555656,-0.81371850
1314273415.40459657,-0.33179000,0.49769154,-0.81433177
1314273415.45349836,-0.33163822,0.49869314,-0.81393218
1314273415.50446725,-0.33368924,0.49544907,-0.81468904
1314273415.55245686,-0.33423042,0.49520338,-0.81471813
1314273415.60446453,-0.33304819,0.49419075,-0.81543988
1314273415.65249181,-0.33239138,0.49692985,-0.81316537
1314273415.70060182,-0.33277649,0.49620003,-0.81517369
1314273415.75248432,-0.33335784,0.49694383,-0.81348616
1314273415.80161929,-0.33312029,0.49418014,-0.81438160
1314273415.85356879,-0.33318639,0.49441990,-0.81319207
1314273415.90499949,-0.33236706,0.49694961,-0.81502312
1314273415.94555640,-0.33226311,0.49695414,-0.81554836
1314273416.00054312,-0.33281475,0.49593139,-0.81358045
1314273416.05249166,-0.33415863,0.49720207,-0.81326824
1314273416.10062027,-0.33090168,0.49641034,-0.81320930
1314273416.15248442,-0.33329377,0.49594977,-0.81480300
1314273416.20052814,-0.33085251,0.49629956,-0.81466627
1314273416.25347877,-0.33182749,0.49427834,-0.81311351
1314273416.30147004,-0.33450449,0.49442789,-0.81260347
1314273416.35359097,-0.33306447,0.49517566,-0.81332356
1314273416.40248108,-0.33299732,0.49581611,-0.81438673
1314273416.45244002,-0.33163244,0.49592495,-0.81417686
1314273416.50847077,-0.33286160,0.49480835,-0.81450433
